FLOCK 2E'-15

Last updated on Nov. 11, 2018, 12:02 a.m. UTC

1 41764U 98067KL  18314.35693980  .11338657  12278-4  11010-2 0  9995
2 41764  51.6147 297.3930 0004800 130.8519 229.2277 16.37516866123220

Satellite is not in orbit.